Regional Weather Roundup
Issued by NWS

Home | Current Version | Previous Version | Graphics & Text | Print | Product List | Glossary On
Versions: 1 2 3 4 5 6 7 8 9 10 11 12 13 14 15 16 17 18 19 20 21 22 23 24 25 26 27 28 29 30 31 32 33 34 35 36 37 38 39 40 41 42 43 44 45 46 47 48 49 50
000
ASUS43 KBIS 230220
RWRND

NORTH DAKOTA REGIONAL WEATHER ROUNDUP
NATIONAL WEATHER SERVICE BISMARCK ND
900 PM CDT TUE APR 22 2014

NOTE: "FAIR" INDICATES FEW OR NO CLOUDS BELOW 12,000 FEET WITH NO
SIGNIFICANT WEATHER AND/OR OBSTRUCTIONS TO VISIBILITY.


NDZ001>003-009>011-017-230300-
NORTHWEST NORTH DAKOTA

CITY           SKY/WX    TMP DP  RH WIND       PRES   REMARKS
WILLISTON      MOCLDY    64  30  27 SE18G26   29.65S
MINOT          MOCLDY    57  32  38 E15G23    29.78S
MINOT AFB      MOCLDY    55  36  50 SE18      29.78S
$$

NDZ018>021-031>035-040>046-230300-
SOUTHWEST NORTH DAKOTA

CITY           SKY/WX    TMP DP  RH WIND       PRES   REMARKS
BISMARCK       CLEAR     59  31  34 SE20G26   29.77F
DICKINSON      MOCLDY    58  30  34 SE25G32   29.64F
GARRISON         N/A     56  33  42 SE17      29.75F
HETTINGER ARPT CLOUDY    59  31  34 E21G32    29.64F
$$

NDZ004>008-012>016-024-026-027-054-230300-
NORTHEAST NORTH DAKOTA

CITY           SKY/WX    TMP DP  RH WIND       PRES   REMARKS
GRAND FORKS    PTCLDY    53  31  42 E9        29.98R
GRND FRKS AFB  PTCLDY    52  34  49 E8        29.98R
DEVILS LAKE    MOCLDY    52  34  50 E15       29.91F
$$

NDZ022-023-025-028>030-036>039-047>053-230300-
SOUTHEAST NORTH DAKOTA

CITY           SKY/WX    TMP DP  RH WIND       PRES   REMARKS
FARGO          CLEAR     54  32  43 E9        29.97S
JAMESTOWN      MOCLDY    53  34  48 SE16      29.89F
$$




USA.gov is the U.S. government's official web portal to all federal, state and local government web resources and services.